Regional Weather Roundup
Issued by NWS

Home | Current Version | Previous Version | Text Only | Print | Product List | Glossary Off
Versions: 1 2 3 4 5 6 7 8 9 10 11 12 13 14 15 16 17 18 19 20 21 22 23 24 25 26 27 28 29 30 31 32 33 34 35 36 37 38 39 40 41 42 43 44 45 46 47 48 49 50

000
ASUS43 KOAX 020310
RWRNE

WEATHER ROUNDUP FOR NEBRASKA
NATIONAL WEATHER SERVICE OMAHA NE
900 PM CST THU DEC 01 2016

NOTES: SATELLITE DATA IS BEING USED TO AUGMENT CLOUD COVER ABOVE
       12000 FEET.
       "FAIR" INDICATES FEW OR NO CLOUDS BELOW 12,000 FEET WITH NO
       SIGNIFICANT WEATHER AND/OR OBSTRUCTIONS TO VISIBILITY.

  * THESE STATIONS DO NOT REPORT WEATHER SUCH AS RAIN...SNOW OR FOG.

NEZ001>004-019>022-054>056-020400-
NEBRASKA PANHANDLE

CITY           SKY/WX    TMP DP  RH WIND       PRES   REMARKS
SCOTTSBLUFF    CLOUDY    22  12  65 NW3       29.99R
ALLIANCE       MOCLDY    20  14  77 CALM      29.98R
CHADRON        CLOUDY    31  20  63 W5        30.01R WCI  26
KIMBALL        CLOUDY    28  22  79 NW7       29.98S WCI  21
SIDNEY         CLEAR     15   9  76 W6        29.99R WCI   6
$$

NEZ057>060-069>072-079>082-020400-
SOUTHWEST NEBRASKA

CITY           SKY/WX    TMP DP  RH WIND       PRES   REMARKS
NORTH PLATTE   CLEAR     21  13  71 CALM      30.00R
IMPERIAL       CLEAR     27  11  51 MISG      30.01R
LEXINGTON      CLEAR     26  19  74 CALM      30.01R
MCCOOK         CLEAR     26  16  65 W3        30.01R
OGALLALA       CLEAR     20  13  74 SW3       30.00S
$$

NEZ005>010-023>029-035>040-094-020400-
NORTH CENTRAL NEBRASKA

CITY           SKY/WX    TMP DP  RH WIND       PRES   REMARKS
VALENTINE      CLOUDY    26  21  81 CALM      30.02R
AINSWORTH      CLOUDY    26  23  91 CALM      30.01S
BROKEN BOW     CLOUDY    29  23  78 NE5       30.01R WCI  24
O`NEILL        CLOUDY    28  26  90 W3        30.04S
ORD            CLOUDY    26  20  77 CALM      30.03R
THEDFORD       PTCLDY    27  21  77 CALM      30.01R
$$

NEZ041-046>049-061>064-073>077-083>087-020400-
SOUTH CENTRAL NEBRASKA

CITY           SKY/WX    TMP DP  RH WIND       PRES   REMARKS
GRAND ISLAND   CLEAR     24  22  91 NE8       30.04R WCI  15
AURORA         CLEAR     26  22  87 NE8       30.05R WCI  17
HASTINGS       CLEAR     25  19  78 CALM      30.04S
HEBRON         CLEAR     24  20  82 CALM      30.05S
HOLDREGE       CLEAR     24  15  70 S3        30.01S
KEARNEY *      CLEAR     25  18  74 E5        30.03R WCI  19
YORK           PTCLDY    28  23  80 NE6       30.06R WCI  22
$$

NEZ011>018-030>034-042>045-020400-
NORTHEAST NEBRASKA

CITY           SKY/WX    TMP DP  RH WIND       PRES   REMARKS
NORFOLK        CLOUDY    29  25  85 W3        30.04S
ALBION         CLOUDY    29  25  84 CALM      30.05R
BLAIR          CLOUDY    33  29  83 NW6       30.05R WCI  28
FREMONT        CLOUDY    32  28  85 CALM      30.06S
TEKAMAH        CLOUDY    33  28  81 NW5       30.07R WCI  29
WAYNE          CLOUDY    32  29  90 W3        30.05R
$$

NEZ050>053-065>068-078-088>093-020400-
SOUTHEAST NEBRASKA

CITY           SKY/WX    TMP DP  RH WIND       PRES   REMARKS
LINCOLN        PTCLDY    31  24  75 CALM      30.08R
OMAHA EPPLEY   CLOUDY    35  27  72 NW3       30.07R
BEATRICE       PTCLDY    26  21  82 CALM      30.06R
FALLS CITY     PTCLDY    30  25  81 W3        30.07R
NEBRASKA CITY  PTCLDY    34  24  67 CALM      30.07R
PLATTSMOUTH    CLOUDY    33  24  68 CALM      30.06S
$$

NEZ044-045-051>053-067-020400-
OMAHA AREA

CITY           SKY/WX    TMP DP  RH WIND       PRES   REMARKS
OMAHA EPPLEY   CLOUDY    35  27  72 NW3       30.07R
BLAIR          CLOUDY    33  29  83 NW6       30.05R WCI  28
FREMONT        CLOUDY    32  28  85 CALM      30.06S
MILLARD        PTCLDY    35  28  76 CALM      30.07R
OFFUTT AFB     CLOUDY    31  30  99 CALM      30.06R
PLATTSMOUTH    CLOUDY    33  24  68 CALM      30.06S
WAHOO          MOCLDY    32  27  82 N5        30.06S WCI  28
$$




USA.gov is the U.S. government's official web portal to all federal, state and local government web resources and services.